When you browse on this site, cookies collect data to enhance your experience and personalize the content and advertising you see.
Visit our Privacy Policy to learn more. By continuing to use the site, you agree to this use of cookies and data.
  • In Czech Republic
  • List of Countries
  • For 7 days
  • Water Temperature
  • Satellite Maps
  • Weather Map
  • Weather Widgets
  • user-avatar
    Login

    Hourly Weather Tri Rutki

    Today, 19 February, Tuesday

    Time Temperature Precipitation Wind Pressure Humidity
    00:00 -17°C° 0 mm 5 mps 753 mmHg 74%
    01:00 -17°C° 0 mm 5 mps 754 mmHg 76%
    02:00 -17°C° 0 mm 5 mps 754 mmHg 77%
    03:00 -16°C° 0 mm 4 mps 754 mmHg 79%
    04:00 -16°C° 0 mm 4 mps 755 mmHg 82%
    05:00 -17°C° 0 mm 4 mps 755 mmHg 84%
    06:00 -16°C° 0 mm 3 mps 756 mmHg 87%
    07:00 -16°C° 0 mm 3 mps 756 mmHg 86%
    08:00 -14°C° 0 mm 2 mps 756 mmHg 86%
    09:00 -14°C° 0 mm 2 mps 756 mmHg 86%
    10:00 -13°C° 0 mm 2 mps 756 mmHg 80%
    11:00 -10°C° 0 mm 2 mps 755 mmHg 74%
    12:00 -9°C° 0 mm 2 mps 755 mmHg 68%
    13:00 -10°C° 0 mm 3 mps 754 mmHg 69%
    14:00 -10°C° 0 mm 3 mps 753 mmHg 70%
    15:00 -10°C° 0 mm 4 mps 752 mmHg 71%
    16:00 -10°C° 0.1 mm 4 mps 752 mmHg 76%
    17:00 -10°C° 0.1 mm 4 mps 751 mmHg 82%
    18:00 -10°C° 0.1 mm 4 mps 751 mmHg 88%
    19:00 -9°C° 0.1 mm 4 mps 751 mmHg 88%
    20:00 -7°C° 0.1 mm 3 mps 750 mmHg 89%
    21:00 -7°C° 0.1 mm 3 mps 750 mmHg 89%
    22:00 -6°C° 0 mm 3 mps 750 mmHg 90%
    23:00 -6°C° 0 mm 3 mps 749 mmHg 91%

    Tomorrow, 20 February, Wednesday

    Time Temperature Precipitation Wind Pressure Humidity
    00:00 -6°C° 0 mm 3 mps 749 mmHg 91%
    01:00 -6°C° 0 mm 3 mps 749 mmHg 92%
    02:00 -6°C° 0 mm 3 mps 749 mmHg 93%
    03:00 -7°C° 0 mm 3 mps 749 mmHg 94%
    04:00 -7°C° 0 mm 3 mps 749 mmHg 93%
    05:00 -7°C° 0 mm 3 mps 748 mmHg 93%
    06:00 -7°C° 0 mm 3 mps 748 mmHg 92%
    07:00 -8°C° 0 mm 4 mps 747 mmHg 91%
    08:00 -8°C° 0 mm 4 mps 747 mmHg 91%
    09:00 -9°C° 0 mm 4 mps 747 mmHg 90%
    10:00 -8°C° 0 mm 4 mps 746 mmHg 89%
    11:00 -8°C° 0 mm 4 mps 746 mmHg 88%
    12:00 -7°C° 0 mm 4 mps 746 mmHg 87%
    13:00 -5°C° 0 mm 4 mps 745 mmHg 85%
    14:00 -4°C° 0 mm 4 mps 745 mmHg 84%
    15:00 -3°C° 0 mm 4 mps 745 mmHg 83%
    16:00 -3°C° 0 mm 4 mps 745 mmHg 84%
    17:00 -4°C° 0 mm 4 mps 744 mmHg 86%
    18:00 -5°C° 0 mm 5 mps 744 mmHg 87%
    19:00 -3°C° 0.1 mm 4 mps 744 mmHg 88%
    20:00 -3°C° 0.1 mm 4 mps 744 mmHg 89%
    21:00 -3°C° 0.1 mm 4 mps 743 mmHg 90%
    22:00 -3°C° 0.2 mm 4 mps 743 mmHg 91%
    23:00 -3°C° 0.2 mm 4 mps 743 mmHg 91%

    Day after tomorrow, 21 February, Thursday

    Time Temperature Precipitation Wind Pressure Humidity
    00:00 -2°C° 0.2 mm 4 mps 743 mmHg 92%
    01:00 -2°C° 0.1 mm 4 mps 743 mmHg 92%
    02:00 -2°C° 0.1 mm 4 mps 742 mmHg 92%
    03:00 -2°C° 0.1 mm 4 mps 742 mmHg 92%
    04:00 -2°C° 0.1 mm 4 mps 742 mmHg 93%
    05:00 -2°C° 0.1 mm 3 mps 742 mmHg 93%
    06:00 -2°C° 0.1 mm 3 mps 742 mmHg 93%
    07:00 -1°C° 0.1 mm 3 mps 742 mmHg 92%
    08:00 -2°C° 0.1 mm 4 mps 742 mmHg 91%
    09:00 -1°C° 0.1 mm 4 mps 743 mmHg 91%
    10:00 -1°C° 0.1 mm 4 mps 743 mmHg 90%
    11:00 0°C° 0.1 mm 3 mps 743 mmHg 90%
    12:00 0°C° 0.1 mm 3 mps 743 mmHg 90%
    13:00 0°C° 0.2 mm 3 mps 743 mmHg 90%
    14:00 0°C° 0.2 mm 3 mps 743 mmHg 89%
    15:00 0°C° 0.2 mm 3 mps 743 mmHg 89%
    16:00 0°C° 0.1 mm 3 mps 743 mmHg 91%
    17:00 -1°C° 0.1 mm 2 mps 743 mmHg 93%
    18:00 -1°C° 0.1 mm 2 mps 743 mmHg 95%
    19:00 -1°C° 0.2 mm 2 mps 743 mmHg 95%
    20:00 -1°C° 0.2 mm 2 mps 742 mmHg 95%
    21:00 -1°C° 0.2 mm 2 mps 742 mmHg 96%
    22:00 -1°C° 0.1 mm 2 mps 742 mmHg 96%
    23:00 -2°C° 0.1 mm 2 mps 742 mmHg 96%

    22 February, Friday

    Time Temperature Precipitation Wind Pressure Humidity
    00:00 -2°C° 0.1 mm 2 mps 742 mmHg 96%
    01:00 -2°C° 0.1 mm 2 mps 742 mmHg 96%
    02:00 -2°C° 0.1 mm 2 mps 742 mmHg 96%
    03:00 -3°C° 0.1 mm 2 mps 742 mmHg 97%
    04:00 -1°C° 0.4 mm 1 mps 742 mmHg 97%
    05:00 -1°C° 0.4 mm 1 mps 742 mmHg 97%
    06:00 -1°C° 0.4 mm 1 mps 743 mmHg 97%
    07:00 -4°C° 0.6 mm 2 mps 743 mmHg 96%
    08:00 -5°C° 0.6 mm 3 mps 743 mmHg 96%
    09:00 -6°C° 0.6 mm 3 mps 744 mmHg 95%
    10:00 -7°C° 0.3 mm 4 mps 744 mmHg 93%
    11:00 -8°C° 0.3 mm 4 mps 744 mmHg 92%
    12:00 -8°C° 0.3 mm 5 mps 744 mmHg 90%
    13:00 -8°C° 0.3 mm 5 mps 745 mmHg 90%
    14:00 -10°C° 0.3 mm 5 mps 745 mmHg 90%
    15:00 -10°C° 0.3 mm 5 mps 746 mmHg 90%
    16:00 -10°C° 0.3 mm 5 mps 746 mmHg 90%
    17:00 -10°C° 0.3 mm 5 mps 747 mmHg 90%
    18:00 -11°C° 0.3 mm 5 mps 747 mmHg 90%
    19:00 -11°C° 0.2 mm 5 mps 748 mmHg 90%
    20:00 -11°C° 0.2 mm 5 mps 748 mmHg 89%
    21:00 -11°C° 0.2 mm 5 mps 749 mmHg 88%
    22:00 -11°C° 0.1 mm 5 mps 750 mmHg 89%
    23:00 -11°C° 0.1 mm 4 mps 750 mmHg 89%

    23 February, Saturday

    Time Temperature Precipitation Wind Pressure Humidity
    00:00 -11°C° 0.1 mm 4 mps 751 mmHg 90%
    01:00 -11°C° 0.1 mm 4 mps 752 mmHg 90%
    02:00 -11°C° 0.1 mm 4 mps 752 mmHg 90%
    03:00 -10°C° 0.1 mm 4 mps 753 mmHg 90%
    04:00 -11°C° 0.1 mm 4 mps 753 mmHg 90%
    05:00 -12°C° 0.1 mm 4 mps 754 mmHg 90%
    06:00 -12°C° 0.1 mm 4 mps 755 mmHg 90%
    07:00 -12°C° 0.1 mm 4 mps 755 mmHg 90%
    08:00 -12°C° 0.1 mm 4 mps 756 mmHg 89%
    09:00 -12°C° 0.1 mm 4 mps 757 mmHg 89%
    10:00 -12°C° 0 mm 3 mps 757 mmHg 89%
    11:00 -10°C° 0 mm 3 mps 758 mmHg 88%
    12:00 -9°C° 0 mm 3 mps 759 mmHg 87%
    13:00 -9°C° 0 mm 3 mps 759 mmHg 88%
    14:00 -9°C° 0 mm 3 mps 759 mmHg 88%
    15:00 -9°C° 0 mm 3 mps 760 mmHg 88%
    16:00 -10°C° 0 mm 3 mps 760 mmHg 89%
    17:00 -12°C° 0 mm 3 mps 761 mmHg 90%
    18:00 -12°C° 0 mm 3 mps 761 mmHg 91%
    19:00 -13°C° 0 mm 3 mps 762 mmHg 91%
    20:00 -13°C° 0 mm 3 mps 762 mmHg 92%
    21:00 -14°C° 0 mm 3 mps 763 mmHg 92%
    22:00 -13°C° 0 mm 2 mps 763 mmHg 92%
    23:00 -14°C° 0 mm 2 mps 763 mmHg 92%

    24 February, Sunday

    Time Temperature Precipitation Wind Pressure Humidity
    00:00 -15°C° 0 mm 2 mps 764 mmHg 92%
    01:00 -16°C° 0 mm 2 mps 764 mmHg 93%
    02:00 -16°C° 0 mm 2 mps 764 mmHg 93%
    03:00 -17°C° 0 mm 2 mps 764 mmHg 93%
    04:00 -16°C° 0 mm 1 mps 765 mmHg 93%
    05:00 -17°C° 0 mm 1 mps 765 mmHg 93%
    06:00 -17°C° 0 mm 1 mps 765 mmHg 92%
    07:00 -16°C° 0 mm 1 mps 765 mmHg 89%
    08:00 -15°C° 0 mm 1 mps 765 mmHg 85%
    09:00 -14°C° 0 mm 1 mps 766 mmHg 81%
    10:00 -14°C° 0 mm 2 mps 766 mmHg 81%
    11:00 -13°C° 0 mm 2 mps 766 mmHg 80%
    12:00 -10°C° 0 mm 2 mps 766 mmHg 79%
    13:00 -9°C° 0 mm 2 mps 766 mmHg 81%
    14:00 -9°C° 0 mm 2 mps 766 mmHg 83%
    15:00 -8°C° 0 mm 2 mps 765 mmHg 84%
    16:00 -8°C° 0 mm 2 mps 765 mmHg 87%
    17:00 -9°C° 0 mm 2 mps 765 mmHg 90%
    18:00 -9°C° 0 mm 2 mps 765 mmHg 92%
    19:00 -9°C° 0 mm 2 mps 765 mmHg 93%
    20:00 -9°C° 0 mm 2 mps 765 mmHg 93%
    21:00 -9°C° 0 mm 2 mps 765 mmHg 94%
    22:00 -10°C° 0 mm 3 mps 765 mmHg 93%
    23:00 -10°C° 0 mm 3 mps 764 mmHg 93%
    Show more